PEGASUS R/B

Satellite information

Favourite Embed

Satellite Type and Status

ROCKET BODYIN ORBIT

Key statistics

Satellite PEGASUS R/B at a glance.

Uptime

10650

Days in orbit

Revolutions

≈ 14.3

Per day

Orbit

LEO

Low Earth Orbit

Inclination

90.0

Latest

Satellite identification and parameters

Extended collection of information and parameters for PEGASUS R/B.

Object identification

Identified? True

Debris? False

Object name: PEGASUS R/B

International designator: 1996-014B

Object number (NORAD): 23815

Object ID (CCSDS): 23815

Country: UNITED STATES OF AMERICA (US)

Current information (Y/N): Y

RCS size: LARGE

Orbital parameters

Period: 101.013 minutes

Inclination: 90.0044 deg

SMA: 7184.769 km

Apoapsis: 823.251 km

Periapsis: 790.017 km

RAAN: 338.8282 deg

Eccentricy: 0.0023128

Argument of periapsis: 36.854 deg

Mean anomaly: 323.4237 deg

Mean motion: 14.25553619 rev/day

Mean motion (dot): 0.0000023 rev/day2

B* drag term: 0.000092391 1/REarth

Two-line elements (TLE)

Creation date: May 6, 2025, 3:54 a.m.

Reference frame: TEME

Reference center: EARTH

Epoch: May 5, 2025, 8:37 p.m. UTC

TLE line 0: 0 PEGASUS R/B

TLE line 1: 1 23815U 96014B 25125.85929289 .00000230 00000-0 92391-4 0 9999

TLE line 2: 2 23815 90.0044 338.8282 0023128 36.8540 323.4237 14.25553619515628

Live tracking on map

Real-time ground track for satellite PEGASUS R/B.

In-orbit conjunctions

A list of the most updated potential collisions computed for object PEGASUS R/B.

Target Orbit TCA Probability of collision Miss distance Type
FENGYUN 1C DEB SSO 2025-04-03 16:41:26 0.0001708179 161.0 (m) DEBRIS
CZ-6A DEB LEO 2025-04-03 09:02:05 0.0001719306 658.0 (m) DEBRIS
THOR BURNER 2 R/B SSO 2025-03-17 11:55:44 0.000168029 87.0 (m) ROCKET BODY
CZ-6A R/B LEO 2024-10-12 17:19:02 0.000142887 733.0 (m) ROCKET BODY
FENGYUN 1C DEB SSO 2024-08-08 01:13:17 0.0001829694 750.0 (m) DEBRIS

Associated space launch

PEGASUS R/B was lifted into orbit during the mission ‘Pegasus XL | REX II’, on board a Pegasus XL space rocket.

The launch took place on March 9, 1996, 1:33 a.m. from Vandenberg Space Force Base.

For more information about the launch, click the button.

Launch to space Pegasus XL | REX II
Pegasus XL | REX II

Agency: N/A

Status: Launch Successful

Launch date: March 9, 1996, 1:33 a.m. UTC

Rocket: Pegasus XL

Launch pad: Vandenberg Space Force Base

Location: Air launch to orbit

...

Latest news about this satellite

There are no fresh news available about this satellite. Check back as we update our databases every day.


Newsletter sign-up

Weekly statistics, charts and insights to help you stay on top of the space industry.